Terug naar catalogus

FENGYUN 1C DEB

ActiefSSO
NORAD 30214·DEBRIS·🇨🇳 China

Gelanceerd May 10, 1999 vanaf Taiyuan Satellite Launch Center

Loading…

Volgende Passages (komende 24 uur)

TLE

VersSource: Space-Track

Epoch: Sep 14, 2026, 11:49 UTC

1 30214U 99025VX  26257.49248660  .00002006  00000-0  75136-3 0  9999
2 30214  98.7093 336.8346 0019415 309.7415 172.5253 14.32771651 14478

Volg FENGYUN 1C DEB in realtime met AllMySat

Download on the App Store